Temperature
19 20 20 20 17 15 17 18 19 19 19 21 21 21 20 19 19 19 20 19 18 17 16 14 13 13 13 12 12 11 11 10 9 9 8 8 8 8 7 7 7 7 7 7 7 7 8 8 8
19 19 20 19 15 16 17 18 18 19 20 21 21 21 20 20 20 20 20 20 18 17 16 15 14 13 13 12 12 12 11 10 9 9 8 8 8 8 7 7 7 7 7 7 7 7 8 8 8
19 19 20 16 16 16 18 19 18 19 20 20 20 20 20 20 20 21 21 20 18 17 16 15 14 13 12 12 12 12 11 10 10 9 9 8 8 8 7 7 7 8 8 8 8 8 8 8 8
20 20 19 16 17 17 18 19 18 18 19 20 20 19 20 20 20 21 20 20 19 18 16 15 14 13 12 12 12 12 11 11 10 9 9 8 8 8 8 8 8 8 8 8 8 8 8 8 8
20 20 17 16 17 17 17 19 19 17 18 19 20 18 19 20 20 20 20 20 19 18 17 15 13 12 12 12 12 12 11 11 10 10 9 9 9 8 9 9 8 8 8 8 8 8 8 8 8
20 17 16 16 17 17 18 20 19 18 19 19 19 18 20 20 20 20 19 19 19 18 17 15 13 12 12 12 11 12 11 11 11 10 10 9 9 9 9 9 9 9 9 9 9 9 8 8 8
20 15 16 17 16 17 19 21 20 20 19 20 20 18 19 20 19 18 18 18 17 17 16 15 13 12 11 11 11 11 11 11 11 10 10 10 10 10 10 10 9 9 9 9 9 9 9 8 8
20 15 17 16 17 17 19 21 21 21 21 21 20 18 19 20 18 17 16 16 16 15 15 15 13 12 11 11 11 11 11 11 11 11 10 10 10 10 10 10 10 10 9 9 9 9 9 9 8
20 15 15 16 17 18 20 20 21 20 20 20 20 20 20 20 18 16 15 14 14 14 14 14 13 13 12 11 11 10 11 11 11 11 11 11 11 10 10 10 10 10 9 9 9 9 9 9 8
19 14 16 17 18 18 19 19 20 19 18 19 19 20 19 19 19 17 17 16 16 16 15 14 13 13 12 11 11 10 10 11 11 11 11 11 11 10 10 10 10 10 9 9 9 9 9 9 9
17 15 16 18 20 19 19 19 20 19 16 18 19 20 19 18 18 18 18 18 17 17 16 15 14 13 12 12 11 11 11 11 11 11 11 11 10 10 10 10 10 10 9 9 9 9 9 9 9
17 17 18 19 20 19 19 19 18 18 19 20 19 19 18 18 18 18 18 18 17 16 16 16 14 13 12 12 11 11 11 11 11 11 11 11 11 10 10 10 10 10 9 9 9 9 9 8 8
17 17 19 19 19 18 18 18 18 19 21 20 19 18 18 18 18 18 18 18 17 16 16 16 15 14 13 12 12 11 11 11 11 11 11 11 11 10 10 10 10 9 9 9 9 8 8 8 8
18 18 18 19 19 18 17 17 16 19 21 20 20 19 19 19 19 18 18 18 17 17 16 16 15 14 13 13 12 12 12 11 11 11 11 11 10 10 10 10 10 9 9 9 8 8 8 8 8
17 16 15 17 17 17 17 16 15 21 20 20 20 20 19 19 19 19 19 19 19 18 17 16 15 14 14 13 13 12 12 11 11 11 11 10 10 10 10 10 9 9 9 8 8 8 8 8 8
16 15 15 16 17 16 17 15 16 20 18 18 19 19 19 19 19 20 20 19 19 18 17 16 15 14 14 13 13 12 12 11 11 11 11 10 10 10 9 9 9 9 8 8 8 8 8 8 8
15 14 15 15 16 16 16 15 15 18 17 17 17 18 19 19 19 20 20 20 19 18 17 16 15 14 14 13 12 11 11 11 11 10 10 10 10 10 9 9 9 9 8 8 8 8 8 7 7
15 15 14 14 15 16 15 14 15 17 17 16 16 17 18 18 19 20 20 19 19 18 17 16 15 14 13 12 11 10 10 10 10 10 10 9 9 9 9 9 8 8 8 7 7 7 7 7 7
15 15 14 14 15 15 14 14 14 16 16 16 16 17 18 18 19 19 19 19 18 18 17 16 15 14 13 12 11 11 11 10 10 10 10 9 9 9 8 8 8 7 7 7 7 7 6 6 6
15 15 13 14 14 15 14 13 14 15 15 16 16 16 17 18 19 19 19 18 18 17 17 16 15 15 14 13 13 12 11 11 10 10 9 9 9 8 8 7 7 7 7 7 6 6 6 6 5
15 15 14 14 13 13 14 14 15 15 15 15 16 16 17 17 17 18 18 17 17 17 16 16 15 15 14 13 12 11 11 10 10 10 10 9 9 8 8 7 7 7 6 6 6 6 5 5 5
14 15 15 15 13 12 13 13 14 15 15 14 15 16 16 17 17 17 17 17 16 16 15 15 14 14 13 13 12 11 11 11 11 10 10 9 9 8 8 7 7 6 6 6 6 5 5 4 4
15 15 14 14 13 12 12 12 12 14 15 14 14 15 16 16 16 16 16 16 16 15 15 14 14 13 13 12 11 11 11 10 10 9 9 9 8 8 7 7 6 6 6 6 5 5 4 4 4
15 14 13 11 11 12 14 12 13 13 14 14 14 15 15 15 15 15 15 15 15 14 14 14 13 13 12 12 11 11 10 10 9 9 9 8 8 8 7 7 6 6 5 5 5 5 4 4 3
14 13 12 13 12 13 13 13 13 14 14 13 13 14 15 15 15 15 14 14 14 14 14 13 13 12 12 11 11 11 10 10 9 9 8 8 8 7 7 7 6 6 6 5 5 4 4 4 3
14 13 13 14 12 12 12 13 13 13 14 15 15 15 14 14 14 14 13 13 13 13 13 13 13 12 12 11 11 10 10 10 9 9 8 8 8 8 7 7 6 6 5 5 4 4 4 3 3
15 13 12 11 12 11 11 12 13 13 13 13 13 14 14 14 14 13 13 13 13 13 12 12 12 12 11 11 10 10 10 9 9 9 8 8 8 7 7 6 6 5 5 5 4 4 4 3 3
14 12 11 11 12 11 11 12 13 14 13 12 12 13 14 14 13 13 13 12 12 12 12 11 11 11 11 10 10 9 9 9 8 8 8 7 7 7 6 6 5 5 5 4 4 4 3 3 3
13 13 12 10 10 10 11 12 13 14 13 12 12 14 14 13 13 13 12 12 12 11 11 11 10 10 10 10 9 9 8 8 8 7 7 7 7 7 6 6 5 5 5 4 4 3 3 3 3
12 12 11 11 11 9 9 11 13 13 12 13 13 13 13 13 12 12 12 11 11 10 10 10 9 9 9 9 8 8 8 7 7 7 7 7 6 6 6 5 5 5 4 4 3 3 3 2 2
Wind_Speed
3 3 3 4 5 4 3 5 4 4 4 4 5 7 7 5 5 5 2 13 13 19 28 28 28 26 24 22 21 19 18 17 15 15 14 13 13 12 12 12 12 12 12 12 13 13 14 14 14
2 2 5 5 5 1 5 5 6 7 7 5 4 6 5 6 2 5 7 11 18 24 27 27 28 27 25 23 22 20 19 18 16 15 14 14 13 12 12 12 11 11 11 11 12 12 12 13 13
2 2 4 5 4 5 5 5 7 4 5 5 5 3 5 5 6 8 8 15 21 23 25 27 29 27 26 24 23 21 20 19 17 16 15 14 13 13 12 12 11 11 11 11 11 11 11 11 11
3 5 5 4 5 7 7 8 7 4 3 4 7 4 3 3 7 9 11 18 19 18 24 27 29 28 26 25 24 22 21 20 18 17 16 15 14 13 12 12 11 11 10 10 10 9 10 10 10
4 5 4 3 7 7 6 7 8 8 7 6 7 7 5 2 4 9 17 20 21 17 23 26 29 28 26 25 24 23 22 21 19 18 17 16 15 14 13 12 11 11 10 9 9 8 8 8 8
4 5 3 4 8 8 6 3 6 5 4 3 6 5 6 2 6 11 17 17 17 18 24 25 29 28 27 26 25 24 22 21 20 19 18 17 16 15 14 13 12 11 10 9 8 7 7 7 7
4 4 2 4 6 8 5 1 4 4 4 7 8 6 4 4 5 10 12 11 13 19 20 21 25 27 27 26 25 24 23 22 21 20 19 18 17 16 15 13 12 11 10 9 8 7 6 6 6
5 4 2 4 5 8 5 3 3 5 6 3 9 8 8 8 8 9 9 9 10 12 15 18 20 23 24 25 26 25 24 23 22 21 20 18 17 16 16 15 13 12 11 10 9 7 6 6 5
5 4 4 6 6 7 5 4 4 2 3 3 5 5 4 11 13 11 8 7 10 13 12 16 16 20 22 22 24 25 24 24 23 21 21 19 17 16 15 15 14 13 12 11 9 8 7 7 5
4 4 8 7 7 7 7 6 5 4 5 5 5 2 4 12 17 17 15 15 17 19 17 13 16 18 20 21 22 21 22 22 22 20 20 19 17 16 14 15 16 15 13 12 11 10 9 7 6
6 8 9 9 10 8 6 6 4 5 10 11 11 8 9 11 15 18 19 19 19 18 17 17 16 19 20 18 18 17 18 19 20 21 21 19 18 16 15 15 15 14 14 12 11 9 8 8 8
5 9 8 8 6 5 6 5 5 7 14 10 10 7 12 15 19 21 21 19 14 13 19 18 16 17 20 19 17 16 16 16 17 20 22 19 16 14 14 15 15 13 13 12 12 10 10 10 11
6 7 6 7 9 7 7 8 6 11 16 10 7 8 16 19 20 20 18 15 13 15 18 18 16 17 18 17 17 17 17 18 19 20 22 22 16 13 14 15 16 16 15 15 14 13 12 12 12
5 6 9 11 12 6 8 8 4 14 10 8 8 10 16 20 22 17 15 16 19 19 19 17 20 18 18 16 14 15 19 19 20 21 22 23 20 16 15 14 15 16 18 18 16 15 13 12 12
5 7 11 7 4 3 1 7 8 13 8 11 11 10 12 17 18 21 21 22 23 19 18 18 19 17 17 16 17 18 20 21 20 22 23 24 23 20 18 14 14 17 19 18 16 14 12 9 9
4 4 6 8 3 2 2 11 12 9 8 12 12 10 8 10 15 20 20 19 18 16 16 18 18 18 18 16 15 17 19 21 21 22 23 25 25 23 20 15 14 18 18 16 11 7 6 7 7
3 3 6 9 4 1 3 11 13 7 6 9 10 9 7 6 8 13 15 17 16 17 16 17 17 18 17 14 14 15 17 19 21 22 22 24 26 25 22 17 17 18 15 13 11 7 7 7 8
4 6 6 7 6 3 6 12 17 10 3 5 7 8 8 7 7 9 11 12 12 13 13 15 16 15 13 10 8 8 10 11 17 20 22 23 24 25 23 18 16 16 9 9 8 8 8 7 7
5 6 9 9 6 5 8 12 13 8 4 6 7 8 9 8 8 5 2 7 8 10 12 15 16 14 12 9 10 11 13 10 8 14 20 23 24 24 22 16 14 14 11 12 12 9 9 8 4
6 7 8 8 5 4 7 9 8 3 3 3 4 7 8 10 11 9 4 4 7 10 12 13 15 14 14 14 12 8 7 7 8 9 15 21 23 23 22 17 11 11 10 11 11 11 7 7 7
6 6 7 6 8 6 6 8 5 4 4 5 5 5 6 7 9 8 5 1 3 7 10 12 14 14 14 12 7 4 3 2 5 8 9 13 20 22 22 20 17 12 13 14 14 13 12 11 9
6 5 4 4 5 6 4 3 6 2 2 3 4 5 6 6 6 6 5 3 2 5 6 8 9 11 11 10 9 11 11 13 12 10 9 10 17 20 22 21 19 14 13 15 15 14 13 12 11
6 2 3 2 1 4 2 2 8 3 4 4 3 2 3 4 5 5 5 4 3 2 2 4 5 7 8 10 12 12 14 14 9 7 9 11 11 16 20 20 17 15 14 16 15 14 15 15 15
1 5 5 5 4 3 3 4 6 5 8 7 5 3 1 3 5 6 6 6 6 5 3 1 3 5 7 9 11 13 15 14 11 10 11 10 10 11 14 16 16 16 15 17 17 17 17 17 17
5 5 5 6 4 5 4 3 8 7 6 8 8 5 2 1 3 4 6 6 6 6 4 2 2 4 5 8 10 12 15 14 15 14 12 12 10 11 13 15 16 16 16 16 15 17 18 19 17
3 6 4 3 4 6 6 5 7 6 2 5 5 4 2 1 1 1 2 3 3 5 4 3 3 4 4 6 9 10 11 10 11 13 12 13 12 13 12 14 16 17 17 17 17 16 18 17 19
3 4 6 5 1 4 7 8 7 5 6 4 3 3 3 3 3 2 2 2 3 4 4 3 3 4 5 6 7 8 9 10 12 12 11 11 12 11 12 14 16 17 18 18 17 17 19 18 19
3 6 5 4 2 5 7 7 4 3 3 3 4 5 6 5 3 3 3 3 3 3 4 4 3 4 5 5 6 6 7 9 10 9 11 12 13 12 12 13 14 15 16 17 17 17 17 19 19
5 4 4 4 4 4 5 7 5 4 5 6 6 6 6 5 4 3 3 3 3 4 4 4 4 4 5 6 6 6 7 7 8 8 10 11 11 11 12 13 13 14 15 16 16 18 17 19 20
8 8 8 5 5 5 4 8 5 4 4 4 4 3 4 4 3 3 3 4 4 5 5 5 5 5 6 6 6 7 7 7 8 9 10 10 11 11 12 12 13 14 14 14 16 18 18 19 20
Wind_Direction
319 48 75 58 55 50 271 259 193 196 194 193 149 129 145 182 194 221 145 149 147 161 171 174 173 171 170 168 165 162 160 157 153 149 145 140 135 129 122 116 110 103 96 91 88 84 79 76 75
11 76 59 63 86 37 275 253 189 202 191 154 125 119 137 212 198 151 146 166 156 163 170 172 174 173 172 170 168 166 164 162 159 155 152 148 143 138 132 125 119 111 104 98 93 88 83 79 78
347 91 84 78 137 193 235 240 214 223 188 159 146 145 176 208 191 187 186 161 157 166 171 173 176 176 175 173 171 170 168 166 164 161 158 154 150 145 140 134 128 121 114 106 99 94 89 84 81
55 52 58 79 244 234 223 236 216 180 227 205 153 169 224 222 187 186 161 158 160 168 171 176 178 178 177 176 174 173 172 170 168 166 164 161 157 153 148 143 138 132 125 117 108 101 94 89 85
62 73 52 325 276 269 252 232 188 187 201 206 174 188 229 293 170 151 155 162 165 168 171 180 180 181 180 179 178 177 176 174 173 171 170 167 164 160 156 152 148 143 137 129 120 111 103 96 91
56 66 70 283 284 294 295 236 175 205 221 219 185 194 238 328 156 160 161 166 167 168 172 182 183 184 184 183 182 180 179 179 177 176 175 173 170 167 165 163 159 155 149 143 135 126 117 109 102
101 98 194 248 282 298 296 254 182 201 215 212 188 191 267 270 196 153 154 152 162 169 174 185 187 187 187 187 186 184 184 183 182 181 180 179 177 176 174 172 170 167 162 158 152 146 138 128 118
121 104 262 264 267 279 281 282 225 213 238 210 158 178 236 215 162 134 133 143 161 172 180 187 188 186 188 189 190 189 188 187 187 186 185 184 184 184 182 180 180 178 175 173 169 166 162 156 145
87 88 245 245 242 261 275 278 269 280 242 247 198 213 243 144 138 136 141 157 172 183 188 188 188 185 186 188 193 192 193 192 191 190 189 188 187 187 187 183 188 188 187 186 185 184 183 182 184
102 180 233 225 219 247 267 249 253 252 252 254 257 312 105 143 159 169 178 182 186 191 192 191 189 185 184 189 194 193 193 194 192 190 189 186 182 185 187 191 198 198 197 198 198 199 198 194 200
172 207 238 249 248 247 255 252 235 228 259 234 230 212 162 169 177 186 192 192 195 191 190 193 191 187 186 189 191 191 190 190 189 187 186 181 182 187 196 201 208 207 203 203 208 211 204 203 208
234 248 246 257 263 257 250 251 247 229 247 241 226 188 173 184 191 196 199 202 194 187 195 194 191 189 190 190 191 189 188 189 187 187 185 180 183 192 200 205 209 206 201 202 211 215 216 219 222
254 262 267 266 279 259 254 250 260 262 260 273 255 183 188 196 203 207 207 204 194 194 195 195 192 192 192 192 193 195 195 194 191 189 190 188 189 196 201 206 208 209 207 207 211 217 221 225 228
270 287 295 287 282 260 243 261 221 267 278 297 268 222 207 207 208 207 209 207 205 204 198 193 195 194 192 196 199 200 199 196 193 196 197 196 197 198 199 205 208 211 211 212 213 216 217 223 227
305 314 316 297 297 288 238 294 238 254 307 301 288 265 228 219 212 210 210 210 208 206 199 194 195 194 195 198 200 202 201 199 201 203 202 202 203 202 202 206 211 214 214 214 216 220 221 225 227
352 354 315 299 314 306 288 278 266 274 299 293 295 294 268 236 219 220 217 214 209 203 200 198 197 195 199 200 200 203 201 202 207 206 206 207 208 206 205 209 214 213 210 209 209 211 213 225 225
16 316 282 297 290 250 262 272 285 316 295 299 311 317 312 283 246 231 221 214 206 202 198 197 198 197 198 198 198 200 200 205 208 207 209 210 210 208 208 214 216 209 207 209 215 210 208 220 227
272 283 278 280 293 288 264 270 291 317 334 333 339 347 351 342 292 255 225 210 201 198 196 198 200 200 192 188 189 194 203 208 208 209 211 208 209 209 210 215 213 205 205 212 214 216 212 218 222
238 252 276 272 287 308 276 284 297 315 28 27 14 11 7 351 331 337 191 175 180 188 193 197 200 199 188 188 196 202 213 210 210 213 212 210 210 208 210 218 211 206 214 218 214 214 218 225 192
240 276 285 295 328 310 298 304 313 3 68 52 30 21 14 9 10 14 46 140 182 195 200 200 202 199 198 204 204 203 207 210 211 214 216 214 213 212 214 217 214 210 216 220 214 209 217 218 189
271 249 262 286 326 352 357 346 349 359 30 25 16 15 18 22 18 13 21 86 190 207 207 207 206 203 203 200 188 183 183 240 216 218 222 217 216 217 219 219 218 214 215 224 220 212 214 224 210
273 254 246 303 359 314 22 312 288 285 351 2 357 10 18 18 23 20 15 3 273 237 218 215 209 206 203 192 192 197 210 224 226 223 223 216 216 219 221 222 220 219 220 225 223 217 217 218 225
240 308 283 262 161 317 311 196 281 254 222 237 257 316 7 20 30 23 5 345 337 325 249 220 210 210 202 199 204 209 224 234 237 227 227 226 222 222 223 222 222 224 224 226 224 220 216 219 226
358 20 38 50 69 322 251 179 279 225 211 203 218 230 311 24 30 20 10 9 5 5 7 341 212 224 211 207 212 217 229 236 240 237 235 236 233 229 226 224 225 227 228 228 226 224 222 223 225
67 55 11 353 3 269 292 236 253 251 221 182 184 191 208 4 33 19 19 14 8 5 357 348 270 254 232 218 222 226 233 236 240 243 242 243 243 239 232 227 230 232 232 231 227 226 227 226 225
188 138 152 243 266 293 319 259 265 302 118 132 147 163 180 197 327 345 350 357 351 356 356 340 301 277 259 236 237 237 238 240 247 248 246 246 248 247 238 230 233 234 233 233 229 230 230 230 230
158 167 170 144 285 281 288 293 314 43 73 97 126 158 199 226 244 264 299 318 330 342 341 324 303 290 280 260 254 253 247 243 250 254 252 254 254 254 244 237 237 237 236 234 231 233 232 231 231
147 144 103 135 224 276 293 290 250 200 184 165 188 210 222 227 242 268 290 303 317 323 326 333 311 290 287 279 265 261 258 253 255 260 261 260 260 257 254 248 244 243 240 237 235 237 236 234 234
159 175 158 149 167 183 270 275 236 213 187 188 217 225 223 223 236 266 288 307 329 341 342 336 325 311 300 290 281 278 277 274 270 266 266 266 267 264 260 257 252 248 245 241 239 239 236 236 237
183 186 155 168 228 197 211 268 269 187 183 187 212 237 241 245 260 282 309 340 346 339 331 324 313 303 293 290 288 284 284 286 282 276 273 271 271 269 265 263 259 256 252 245 241 243 240 238 239
Height
1544 1546 1547 1548 1552 1562 1562 1553 1547 1546 1544 1541 1541 1542 1544 1546 1549 1552 1546 1545 1546 1547 1550 1552 1555 1558 1560 1561 1563 1564 1565 1565 1566 1566 1567 1567 1567 1567 1567 1567 1566 1566 1566 1565 1564 1563 1562 1561 1560
1545 1546 1548 1548 1558 1568 1563 1549 1546 1541 1539 1539 1539 1540 1542 1542 1543 1543 1542 1543 1544 1546 1548 1550 1553 1556 1558 1560 1561 1562 1563 1564 1565 1565 1566 1566 1566 1566 1566 1566 1566 1566 1565 1565 1564 1563 1563 1562 1561
1546 1546 1548 1550 1559 1564 1555 1546 1542 1538 1538 1538 1538 1539 1540 1540 1540 1540 1541 1542 1543 1545 1547 1549 1552 1554 1556 1558 1560 1561 1562 1563 1564 1564 1565 1565 1566 1566 1566 1566 1566 1565 1565 1565 1564 1564 1563 1562 1562
1547 1548 1548 1554 1556 1552 1547 1541 1539 1539 1539 1538 1537 1538 1538 1538 1538 1538 1539 1540 1541 1543 1545 1547 1550 1552 1554 1556 1558 1559 1561 1562 1562 1563 1564 1564 1565 1565 1565 1565 1565 1565 1565 1565 1564 1564 1563 1562 1562
1546 1547 1552 1558 1554 1546 1540 1536 1537 1538 1536 1536 1536 1535 1535 1535 1535 1536 1537 1539 1540 1541 1543 1546 1548 1551 1553 1555 1556 1558 1559 1560 1561 1562 1563 1563 1564 1564 1564 1564 1564 1564 1564 1564 1564 1564 1563 1563 1562
1547 1547 1559 1562 1553 1544 1538 1536 1537 1536 1535 1535 1535 1534 1532 1532 1532 1533 1535 1537 1539 1540 1541 1544 1546 1549 1551 1553 1555 1556 1558 1559 1560 1561 1562 1562 1563 1563 1563 1564 1564 1564 1564 1564 1564 1564 1563 1563 1562
1547 1552 1557 1556 1553 1546 1539 1537 1536 1535 1534 1533 1532 1532 1529 1529 1530 1531 1533 1535 1537 1538 1540 1542 1544 1546 1549 1551 1553 1554 1556 1557 1558 1559 1560 1561 1562 1562 1562 1563 1563 1563 1563 1563 1563 1563 1563 1562 1562
1546 1550 1553 1554 1551 1546 1538 1536 1535 1533 1532 1531 1530 1529 1527 1526 1527 1529 1531 1533 1534 1536 1538 1539 1541 1543 1546 1548 1550 1552 1554 1555 1556 1557 1558 1559 1560 1561 1561 1562 1562 1562 1562 1562 1562 1562 1562 1562 1561
1546 1554 1557 1552 1548 1542 1536 1534 1533 1531 1530 1528 1527 1525 1524 1524 1525 1526 1528 1529 1531 1532 1534 1536 1538 1540 1542 1545 1547 1549 1551 1553 1554 1555 1556 1557 1558 1559 1560 1560 1561 1561 1561 1561 1561 1561 1561 1561 1560
1545 1554 1549 1542 1539 1536 1533 1532 1530 1529 1527 1525 1524 1522 1521 1521 1521 1522 1523 1524 1525 1527 1529 1532 1534 1536 1539 1542 1544 1546 1547 1549 1551 1552 1554 1555 1556 1557 1558 1559 1559 1559 1560 1560 1560 1559 1559 1559 1559
1542 1545 1539 1535 1533 1532 1530 1528 1527 1525 1523 1520 1519 1517 1517 1517 1517 1518 1518 1520 1521 1523 1525 1527 1530 1533 1535 1537 1540 1542 1544 1546 1547 1549 1551 1552 1554 1555 1555 1556 1557 1557 1558 1558 1558 1558 1557 1557 1557
1540 1537 1534 1532 1530 1529 1527 1525 1523 1521 1516 1515 1515 1514 1513 1513 1512 1513 1514 1516 1517 1519 1521 1523 1526 1528 1531 1534 1536 1538 1539 1541 1543 1545 1547 1549 1550 1551 1552 1553 1554 1555 1555 1555 1555 1555 1555 1555 1555
1537 1533 1530 1528 1527 1525 1523 1521 1520 1515 1511 1511 1510 1509 1508 1508 1507 1508 1510 1512 1514 1514 1516 1519 1522 1524 1527 1529 1531 1533 1535 1537 1539 1542 1544 1545 1547 1548 1549 1550 1551 1552 1552 1553 1553 1553 1553 1552 1552
1534 1531 1528 1525 1521 1519 1519 1516 1518 1509 1508 1507 1506 1504 1503 1502 1502 1503 1505 1506 1507 1509 1511 1514 1516 1519 1522 1524 1526 1528 1531 1533 1535 1537 1539 1541 1543 1544 1546 1547 1548 1548 1549 1550 1550 1550 1549 1549 1548
1533 1531 1527 1521 1519 1517 1517 1517 1512 1506 1506 1504 1502 1499 1497 1496 1497 1497 1498 1500 1502 1504 1507 1509 1511 1515 1517 1519 1522 1524 1526 1529 1530 1532 1535 1537 1538 1540 1541 1542 1543 1544 1545 1546 1546 1546 1545 1545 1544
1533 1535 1536 1524 1519 1518 1521 1521 1506 1506 1505 1501 1497 1494 1492 1491 1491 1492 1493 1495 1498 1500 1503 1505 1508 1509 1512 1514 1517 1519 1521 1523 1525 1527 1529 1531 1533 1535 1536 1537 1538 1540 1541 1541 1541 1541 1540 1540 1540
1538 1542 1538 1529 1519 1519 1520 1517 1503 1503 1502 1498 1495 1491 1488 1487 1487 1487 1489 1491 1493 1496 1499 1501 1504 1505 1507 1510 1513 1515 1516 1518 1519 1521 1523 1525 1527 1529 1530 1531 1532 1534 1535 1535 1535 1535 1535 1534 1534
1540 1540 1537 1533 1522 1519 1520 1516 1504 1501 1500 1498 1495 1491 1488 1486 1485 1485 1485 1487 1490 1493 1496 1499 1501 1502 1505 1507 1509 1511 1511 1512 1514 1515 1516 1518 1520 1522 1524 1524 1526 1527 1528 1528 1528 1528 1528 1528 1529
1534 1536 1537 1529 1520 1519 1517 1514 1505 1501 1499 1498 1496 1492 1490 1487 1486 1484 1485 1486 1488 1491 1493 1495 1497 1499 1501 1502 1504 1505 1505 1506 1508 1509 1510 1512 1514 1515 1516 1517 1518 1520 1520 1520 1521 1522 1521 1521 1522
1532 1534 1533 1526 1519 1519 1517 1513 1505 1501 1500 1500 1498 1495 1492 1490 1488 1486 1486 1486 1488 1489 1491 1492 1493 1495 1497 1498 1500 1501 1502 1502 1503 1505 1505 1506 1507 1508 1509 1510 1510 1511 1512 1512 1513 1513 1513 1513 1514
1529 1531 1530 1528 1523 1519 1519 1515 1509 1504 1502 1501 1499 1497 1495 1493 1491 1489 1488 1488 1488 1489 1489 1490 1491 1492 1494 1495 1497 1497 1498 1497 1497 1497 1498 1499 1500 1501 1502 1502 1502 1503 1503 1503 1504 1505 1505 1504 1505
1531 1523 1524 1524 1529 1531 1527 1532 1516 1507 1505 1503 1501 1499 1497 1495 1493 1492 1490 1490 1489 1488 1488 1488 1489 1490 1491 1492 1492 1492 1492 1490 1490 1492 1493 1493 1494 1493 1493 1494 1494 1493 1493 1493 1494 1495 1494 1495 1494
1524 1521 1523 1523 1526 1532 1529 1532 1521 1509 1507 1504 1502 1500 1498 1497 1495 1494 1492 1491 1490 1489 1488 1487 1487 1487 1488 1489 1489 1488 1487 1486 1487 1487 1486 1486 1486 1485 1485 1485 1485 1484 1483 1483 1483 1484 1483 1483 1483
1520 1523 1525 1530 1534 1535 1524 1530 1522 1511 1503 1501 1500 1500 1499 1498 1497 1495 1494 1492 1490 1489 1488 1487 1486 1486 1486 1486 1485 1485 1483 1483 1482 1480 1479 1478 1478 1477 1476 1476 1475 1474 1473 1472 1472 1473 1472 1472 1471
1523 1532 1540 1536 1541 1534 1523 1523 1517 1500 1495 1496 1498 1499 1500 1499 1498 1496 1495 1493 1491 1490 1488 1487 1486 1485 1484 1484 1483 1481 1480 1479 1477 1475 1473 1472 1470 1468 1467 1467 1465 1464 1463 1462 1462 1461 1460 1460 1459
1523 1530 1542 1544 1546 1539 1525 1522 1509 1498 1494 1495 1498 1500 1500 1499 1498 1497 1495 1494 1492 1490 1489 1487 1486 1485 1483 1482 1480 1479 1477 1475 1472 1470 1468 1465 1463 1460 1459 1458 1455 1454 1453 1452 1451 1449 1448 1448 1446
1522 1528 1530 1540 1540 1543 1534 1520 1506 1498 1498 1498 1500 1500 1500 1499 1498 1497 1496 1494 1492 1491 1489 1487 1486 1484 1482 1480 1478 1476 1473 1471 1468 1465 1462 1459 1456 1453 1451 1449 1446 1444 1443 1442 1440 1438 1436 1436 1434
1520 1525 1535 1539 1543 1546 1536 1526 1513 1502 1501 1501 1500 1499 1499 1498 1497 1497 1495 1494 1492 1491 1489 1487 1485 1482 1480 1477 1475 1472 1469 1466 1463 1459 1456 1452 1449 1446 1443 1440 1437 1435 1433 1431 1429 1426 1425 1424 1421
1524 1525 1528 1537 1541 1546 1544 1528 1503 1498 1498 1499 1498 1498 1497 1497 1497 1496 1495 1493 1492 1490 1488 1485 1483 1480 1477 1474 1471 1468 1464 1461 1457 1454 1450 1446 1442 1438 1435 1431 1428 1425 1422 1420 1418 1415 1414 1412 1410
1517 1520 1526 1534 1535 1539 1542 1526 1496 1496 1496 1496 1496 1496 1496 1496 1496 1495 1493 1492 1490 1488 1485 1482 1479 1476 1473 1469 1466 1462 1459 1455 1451 1447 1443 1438 1434 1430 1426 1422 1418 1414 1412 1409 1407 1403 1402 1400 1397